Location: Maiden
(35.5760°N, 81.2120°W)
Time: 06:29:59
(UTC-05:00)

Daily predictions for brighter satellites

Satellite Brightness Start Highest point End
(mag) Time Altitude Azimuth Time Altitude Azimuth Time Altitude Azimuth
Cosmos 1302 Rocket 4.0 17:29:07 10° S 17:34:20 73° ESE 17:39:32 10° NNE
SMAP 3.3 17:30:11 10° SE 17:34:37 47° ENE 17:39:05 10° N
NOSS 3-1 (A) 4.4 17:33:26 10° SSE 17:36:56 20° ESE 17:40:43 10° ENE
CORIOLIS 4.4 17:33:10 10° SE 17:38:18 49° ENE 17:43:28 10° N
NOSS 3-1 (C) 3.3 17:34:40 10° S 17:39:24 48° ESE 17:44:43 10° NE
Meteor 2-2 Rocket 4.4 17:35:11 10° S 17:41:05 82° E 17:47:07 10° N
Cosmos 389 Rocket 4.2 17:38:32 10° NNW 17:41:41 36° W 17:44:49 10° SSW
Cosmos 724 4.5 17:37:14 10° NNW 17:43:25 88° ENE 17:49:38 10° SSE
Cosmos 1782 3.9 17:40:44 10° SE 17:43:56 25° E 17:47:09 10° NE
COSMO-SKYMED 1 3.7 17:41:50 10° NE 17:45:23 24° E 17:48:54 10° SSE
ARGOS 3.2 17:40:19 10° SSE 17:45:39 62° ENE 17:51:00 10° N
Cosmos 2341 Rocket 4.1 17:40:51 10° S 17:47:03 57° E 17:53:13 10° NNE
SeaSat 1 3.1 17:44:14 10° NE 17:48:47 36° ESE 17:53:17 10° S
CZ-4B R/B 3.4 17:46:36 10° SE 17:49:50 31° ENE 17:53:12 10° N
NOSS 2-3 (D) 3.4 17:46:41 10° SW 17:50:30 75° WNW 17:54:34 10° NNE
NOSS 2-3 (C) 3.6 17:46:50 10° SW 17:50:37 69° WNW 17:54:43 10° NNE
Lacrosse 5 rocket 2.4 17:51:22 10° NW 17:55:46 55° SW 18:00:13 10° SSE
Cosmos 2333 Rocket 2.1 17:52:06 10° NNW 17:57:45 73° ENE 18:03:23 10° SSE
Iridium 4 Rocket 3.9 17:53:03 10° SSE 17:58:06 41° E 18:02:48 10° NNE
Meteor 1-25 Rocket 4.4 17:52:52 10° N 17:58:16 48° ENE 18:03:35 10° SSE
NOSS 2-2 (E) 3.6 17:55:27 10° S 17:58:36 33° ESE 18:00:54 14° ENE
SL-27 R/B 2.9 17:55:28 10° SSW 17:58:39 56° WNW 18:01:49 10° N
Cosmos 2322 4.1 17:54:48 10° N 18:00:13 42° ENE 18:05:37 10° SE
Cosmos 2360 Rocket 2.7 17:54:41 10° NNW 18:00:17 67° WSW 18:05:52 10° S
Cosmos 1500 3.1 18:02:44 10° N 18:06:29 59° E 18:10:11 10° SSE
CZ-4C R/B 3.4 18:02:48 10° NNE 18:06:32 52° E 18:10:26 10° S
ISS -1.9 18:06:45 10° N 18:08:44 15° NNE 18:09:13 14° NE
Cosmos 968 Rocket 3.4 18:05:01 10° NNW 18:10:11 76° ENE 18:15:21 10° SSE
CZ-2D R/B 4.3 18:08:49 10° S 18:12:28 49° W 18:16:10 10° NNW
Cosmos 2227 Rocket 3.6 18:09:29 10° SE 18:13:01 17° E 18:14:11 16° E
ADEOS 3.7 18:09:03 10° S 18:14:16 80° WSW 18:19:30 10° NNW
Cosmos 1766 Rocket 3.7 18:10:16 10° N 18:14:46 84° W 18:19:13 10° S
Cosmos 2297 Rocket 3.0 18:10:58 10° SSE 18:15:52 31° ESE 18:19:18 17° NE
SJ-11-01 4.3 18:11:12 10° SSE 18:15:55 87° WSW 18:20:37 10° NNW
COSMOS 2428 2.9 18:14:30 10° N 18:19:58 46° ENE 18:25:22 10° SE
Meteor PRIRODA 3.9 18:16:22 10° S 18:19:58 69° W 18:23:37 10° NNW
SL-8 Rocket 4.0 18:16:04 10° S 18:22:20 86° W 18:28:35 10° N
Cosmos 2084 Rocket 3.7 18:19:07 10° SW 18:23:04 57° NW 18:26:14 14° NNE
Cosmos 489 Rocket 4.4 18:17:49 10° N 18:24:01 63° ENE 18:30:14 10° SSE
NOSS 2-2 (C) 3.1 18:20:54 10° SSW 18:24:21 51° ESE 18:25:38 30° ENE
Cosmos 44 4.3 18:21:53 10° NW 18:26:30 50° WSW 18:31:19 10° S
OAO 3 Copernicus 4.4 18:23:01 10° W 18:28:03 75° S 18:31:26 21° ESE
CZ-4B R/B 4.1 18:25:12 10° ESE 18:29:45 26° ENE 18:34:14 10° NNE
Meteor 1-26 Rocket 4.2 18:26:12 10° S 18:31:52 77° E 18:37:44 10° NNE
SKYMED 2 3.5 18:29:11 10° NNE 18:33:33 89° W 18:37:53 10° SSW
Cosmos 1821 Rocket 4.2 18:27:59 10° SSE 18:33:56 46° E 18:39:50 10° NNE
Cosmos 1544 2.9 18:31:07 10° N 18:34:33 57° E 18:37:58 10° SSE
Cosmos 2366 rocket 4.1 18:29:02 10° S 18:35:17 81° W 18:41:40 10° N
Tiangong -0.9 18:32:29 10° WNW 18:35:19 28° N 18:35:49 27° NNE
ASTRO E2 3.6 18:31:59 10° WSW 18:35:36 38° S 18:37:08 26° ESE
SL-08 RB Rocket 4.5 18:31:57 10° S 18:36:21 53° W 18:40:44 10° NNW
ATLAS 3B R/B 4.2 18:30:43 10° WSW 18:36:28 29° NW 18:42:32 10° NNE
NOAA 6 4.5 18:35:14 10° S 18:40:20 64° WSW 18:45:26 10° NNW
Cosmos 2219 Rocket 2.4 18:35:49 10° NNW 18:41:22 70° WSW 18:46:55 10° S
CZ-4B DEB 4.1 18:36:33 10° SSE 18:42:02 67° ENE 18:47:32 10° N
SJ 16-02 3.4 18:43:48 10° N 18:44:25 13° N 18:44:25 13° N
Cosmos 1727 Rocket 3.9 18:44:16 10° N 18:50:22 59° E 18:56:28 10° SSE
Cosmos 1980 4.5 18:45:50 10° N 18:50:02 31° NE 18:50:02 31° NE
YAOGAN 3 4.4 18:49:37 10° SSE 18:53:55 67° ENE 18:58:13 10° N
Cosmos 2219 3.9 18:49:02 10° SSE 18:53:42 32° ESE 18:53:42 32° ESE
OAO 2 Rocket 4.2 18:49:49 10° W 18:54:46 45° SSW 18:57:41 22° SE
Cosmos 2237 Rocket 3.1 18:50:45 10° N 18:54:37 30° NE 18:54:37 30° NE
ATLAS CENTAUR R/B 2.4 18:52:43 10° NNW 18:55:20 31° N 18:55:20 31° N
NOSS 2-2 (D) 3.5 18:55:47 10° SW 18:59:11 50° WNW 18:59:36 47° NNW
USA 229 DEB 3.4 18:53:42 10° SSW 18:59:46 69° ESE 19:02:27 36° NE
USA 229 3.4 18:53:48 10° SSW 18:59:52 68° ESE 19:02:30 37° NE
Cosmos 1486 Rocket 3.8 18:58:47 10° NNW 19:04:00 82° ENE 19:09:12 10° SSE
Spot 1 4.4 19:14:01 37° N 19:16:09 85° WNW 19:21:18 10° SSW
DMSP B5D1-3 4.3 19:15:43 68° NE 19:16:14 76° ESE 19:21:20 10° S
Cosmos 1500 Rocket 3.9 19:16:37 10° NNW 19:20:53 62° W 19:25:08 10° S
SeaSat 1 4.3 19:22:31 12° N 19:26:04 26° NW 19:30:07 10° WSW
NOSS 3-1 (A) 4.0 19:22:26 10° WSW 19:27:11 43° NW 19:29:07 31° N
Meteor 1-14 Rocket 4.1 19:22:16 10° N 19:27:56 87° W 19:33:42 10° S
Cosmos 1346 Rocket 4.3 19:26:04 10° SW 19:29:38 34° WNW 19:30:14 32° WNW
NOSS 0 Rocket 4.0 19:24:13 10° NNW 19:30:28 78° WSW 19:36:41 10° SSE
Meteor 1-10 Rocket 4.2 19:30:20 10° S 19:35:51 78° SSE 19:35:51 78° SSE
Cosmos 2227 Rocket 2.8 19:51:01 10° SW 19:56:04 53° W 19:56:04 53° W
USA 267 3.3 19:58:20 72° SW 19:58:20 72° SW 20:04:06 10° SW
Cosmos 2297 Rocket 3.7 19:54:49 10° WSW 19:59:48 31° WNW 20:01:09 28° NW
Cosmos 2344 4.3 19:55:20 10° NNW 20:04:58 85° ENE 20:10:05 44° SE
H-2A ROCKET BODY 4.3 20:21:46 10° W 20:39:56 34° SW 20:41:01 33° SSW
